Fryeburg, ME

8:47 AM EDT on April 23, 2018 (GMT -0400)
Eastern Slopes Regional

Weather History for KIZG - July, 2014

Change the Weather History Date:

Friday, July 11, 2014

  Actual Average Record
Temperature  
Mean Temperature 64 °F -  
Max Temperature 81 °F 78 °F 91 °F (2011)
Min Temperature 48 °F 52 °F 42 °F (2002)
Degree Days  
Heating Degree Days 1    
Growing Degree Days 14 (Base 50)    
Moisture  
Dew Point 50 °F    
Average Humidity 80    
Maximum Humidity 100    
Minimum Humidity 38    
Precipitation  
Precipitation 0.00 in - - ()
Sea Level Pressure  
Sea Level Pressure 30.22 in    
Wind  
Wind Speed 1 mph (SW)    
Max Wind Speed 7 mph    
Max Gust Speed -    
Visibility 7 miles    
Events Fog    
Averages and records for this station are not official NWS values.
T = Trace of Precipitation, MM = Missing Value Source: NWS Daily Summary

Daily Weather History Graph

Daily Weather History Graph

Search for Another Location

Airport or City:

Astronomy

Jul. 11, 2014 Rise Set
Actual Time 5:11 AM EDT 8:26 PM EDT
Civil Twilight 4:36 AM EDT 9:01 PM EDT
Nautical Twilight 3:50 AM EDT 9:47 PM EDT
Astronomical Twilight 2:53 AM EDT 10:43 PM EDT
Moon 7:31 PM EDT (7/11) 4:22 AM EDT (7/11)
Length of Visible Light 16h 25m
Length of Day
15h 15m
Waxing Gibbous, 99% of the Moon is Illuminated
Jul 11
Waxing Gibbous
Jul 12
Full
Jul 18
Last Quarter
Jul 26
New
Aug 3
First Quarter

Hourly Weather History & Observations

Time (EDT) Temp. Dew Point Humidity Pressure Visibility Wind Dir Wind Speed Gust Speed Precip Events Conditions
12:54 AM 52.0 °F 50.0 °F 93% 30.19 in 10.0 mi Calm Calm - N/A   Clear
1:38 AM 51.1 °F 48.9 °F 92% 30.20 in 9.0 mi WSW 4.6 mph - N/A   Partly Cloudy
1:54 AM 51.1 °F 50.0 °F 96% 30.20 in 10.0 mi Calm Calm - N/A   Clear
2:33 AM 48.9 °F 48.0 °F 97% 30.20 in 8.0 mi Calm Calm - N/A   Scattered Clouds
2:54 AM 50.0 °F 48.0 °F 93% 30.21 in 10.0 mi Calm Calm - N/A   Partly Cloudy
3:52 AM 48.2 °F 46.4 °F 93% 30.21 in 1.8 mi Calm Calm - N/A   Partly Cloudy
3:54 AM 50.0 °F 48.0 °F 93% 30.21 in 1.2 mi Calm Calm - N/A   Partly Cloudy
4:03 AM 48.9 °F 48.0 °F 97% 30.21 in 2.0 mi Calm Calm - N/A   Clear
4:13 AM 48.9 °F 48.0 °F 97% 30.21 in 2.5 mi Calm Calm - N/A   Partly Cloudy
4:28 AM 48.9 °F 48.0 °F 97% 30.22 in 9.0 mi Calm Calm - N/A   Partly Cloudy
4:42 AM 48.9 °F 48.0 °F 97% 30.22 in 2.5 mi Calm Calm - N/A   Partly Cloudy
4:49 AM 48.2 °F 48.2 °F 100% 30.22 in 10.0 mi Calm Calm - N/A   Clear
4:54 AM 48.9 °F 46.9 °F 93% 30.22 in 2.0 mi Calm Calm - N/A   Partly Cloudy
4:56 AM 48.9 °F 46.9 °F 93% 30.22 in 0.8 mi Calm Calm - N/A   Mist
5:07 AM 48.0 °F 46.9 °F 96% 30.23 in 1.5 mi Calm Calm - N/A   Partly Cloudy
5:09 AM 48.0 °F 46.9 °F 96% 30.23 in 4.0 mi Calm Calm - N/A   Partly Cloudy
5:17 AM 48.0 °F 46.9 °F 96% 30.23 in 1.2 mi Calm Calm - N/A   Scattered Clouds
5:20 AM 48.0 °F 46.9 °F 96% 30.23 in 0.8 mi Calm Calm - N/A   Mist
5:28 AM 48.0 °F 46.9 °F 96% 30.23 in 1.2 mi WNW 3.5 mph - N/A   Partly Cloudy
5:30 AM 48.0 °F 46.9 °F 96% 30.23 in 0.8 mi West 3.5 mph - N/A   Mist
5:54 AM 48.9 °F 48.0 °F 97% 30.23 in 0.5 mi Calm Calm - N/A Fog Fog
5:58 AM 48.9 °F 48.0 °F 97% 30.23 in 1.8 mi Calm Calm - N/A   Partly Cloudy
6:05 AM 50.0 °F 48.0 °F 93% 30.23 in 10.0 mi Calm Calm - N/A   Partly Cloudy
6:54 AM 55.9 °F 52.0 °F 87% 30.25 in 10.0 mi Calm Calm - N/A   Clear
7:54 AM 60.1 °F 54.0 °F 80% 30.26 in 10.0 mi Calm Calm - N/A   Partly Cloudy
8:54 AM 68.0 °F 53.1 °F 59% 30.26 in 10.0 mi Calm Calm - N/A   Clear
9:54 AM 70.0 °F 50.0 °F 49% 30.25 in 10.0 mi Calm Calm - N/A   Mostly Cloudy
10:54 AM 73.9 °F 48.0 °F 40% 30.25 in 10.0 mi Variable 4.6 mph - N/A   Clear
11:54 AM 75.9 °F 50.0 °F 40% 30.24 in 10.0 mi Variable 5.8 mph - N/A   Clear
12:54 PM 77.0 °F 51.1 °F 40% 30.22 in 10.0 mi Variable 4.6 mph - N/A   Partly Cloudy
1:54 PM 79.0 °F 53.1 °F 40% 30.21 in 10.0 mi Calm Calm - N/A   Mostly Cloudy
2:54 PM 75.9 °F 55.0 °F 48% 30.20 in 10.0 mi Calm Calm - N/A   Mostly Cloudy
3:54 PM 75.9 °F 55.0 °F 48% 30.19 in 10.0 mi SSE 4.6 mph - N/A   Clear
4:54 PM 80.1 °F 52.0 °F 38% 30.18 in 10.0 mi Variable 3.5 mph - N/A   Mostly Cloudy
5:54 PM 78.1 °F 54.0 °F 43% 30.17 in 10.0 mi SW 6.9 mph - N/A   Mostly Cloudy
6:54 PM 75.9 °F 55.0 °F 48% 30.17 in 10.0 mi South 4.6 mph - N/A   Overcast
7:54 PM 72.0 °F 57.9 °F 61% 30.18 in 10.0 mi Calm Calm - N/A   Clear
8:54 PM 63.0 °F 60.1 °F 90% 30.19 in 10.0 mi Calm Calm - N/A   Clear
9:54 PM 60.1 °F 57.9 °F 93% 30.21 in 10.0 mi Calm Calm - N/A   Clear
10:54 PM 57.0 °F 55.9 °F 96% 30.22 in 10.0 mi Calm Calm - N/A   Clear
11:54 PM 57.9 °F 55.0 °F 90% 30.22 in 10.0 mi Calm Calm - N/A   Clear